Regional Weather Roundup
Issued by NWS

Home | Current Version | Previous Version | Graphics & Text | Print | Product List | Glossary On
Versions: 1 2 3 4 5 6 7 8 9 10 11 12 13 14 15 16 17 18 19 20 21 22 23 24 25 26 27 28 29 30 31 32 33 34 35 36 37 38 39 40 41 42 43 44 45 46 47 48 49 50
000
ASUS43 KLOT 181558
RWRIL

ILLINOIS REGIONAL WEATHER ROUNDUP
NATIONAL WEATHER SERVICE CHICAGO/ROMEOVILLE IL
1000 AM CST THU DEC 18 2014

NOTE: "FAIR" INDICATES FEW OR NO CLOUDS BELOW 12,000 FEET WITH NO
SIGNIFICANT WEATHER AND/OR OBSTRUCTIONS TO VISIBILITY.

* THESE STATIONS ARE NOT UNDER NWS QUALITY CONTROL. THEY ALSO MAY NOT
  REPORT WEATHER SUCH AS PRECIPITATION OR FOG.

ILZ001-002-007-009-015-016-024-181700-
NORTHWEST ILLINOIS

CITY           SKY/WX    TMP DP  RH WIND       PRES   REMARKS
MOLINE         CLOUDY    24  18  77 CALM      30.32R
$$

ILZ003-004-008-010-011-017-018-181700-
NORTH CENTRAL ILLINOIS

CITY           SKY/WX    TMP DP  RH WIND       PRES   REMARKS
ROCKFORD       NOT AVBL
$$

ILZ005-006-012>014-019>023-181700-
NORTHEAST ILLINOIS

CITY           SKY/WX    TMP DP  RH WIND       PRES   REMARKS
CHICAGO-OHARE  PTSUNNY   23  16  74 W6        30.30R WCI  16
CHICAGO-MIDWAY NOT AVBL
AURORA         CLOUDY    24  16  71 W6        30.32R WCI  17
WAUKEGAN       NOT AVBL
DUPAGE AIRPORT PTSUNNY   24  16  71 W6        30.30S WCI  17
WHEELING       CLOUDY    23  15  71 SW6       30.32S WCI  16
NORTHERLY ISL    N/A     26  17  68 W5          N/A  WCI  21
$$

LMZ740>746-181700-
SOUTHERN LAKE MICHIGAN

STATION/POSITION SKY/WX   TEMP    WIND        PRES    VSBY  WAVE
                          AIR SEA DIR/SP/G                  HT/PER
                          (F)     (DEG/KT/KT) (MB)    (MI)  (FT/S)
WAUKEGAN HARBOR            21     290/  9/ 11   N/A
HARRISON CRIB              23     270/ 10/ 12   N/A
BURNHAM HARBOR             25     300/  6/  8   N/A
CALUMET HARBOR             25     200/  8/  9 1025.1R
$$

ILZ025>027-034>036-040-047-049-050-058-095>099-181700-
WEST-CENTRAL ILLINOIS

CITY           SKY/WX    TMP DP  RH WIND       PRES   REMARKS
$$

ILZ028>032-037-038-041>044-048-051>054-059>061-181700-
CENTRAL ILLINOIS

CITY           SKY/WX    TMP DP  RH WIND       PRES   REMARKS
DECATUR        CLOUDY    26  22  84 CALM      30.32S FOG
PEORIA         NOT AVBL
SPRINGFIELD    LGT SNOW  28  23  81 CALM      30.32R
TAYLORVILLE    NOT AVBL
$$

ILZ033-039-045-046-055>057-062-063-181700-
EAST-CENTRAL ILLINOIS

CITY           SKY/WX    TMP DP  RH WIND       PRES   REMARKS
MATTOON        CLOUDY    26  19  74 NE6       30.30S WCI  19
$$

ILZ079-100>102-181700-
SOUTHWEST ILLINOIS

CITY           SKY/WX    TMP DP  RH WIND       PRES   REMARKS
ALTON          FLURRIES  30  23  74 VRB5      30.33R WCI  25
$$

ILZ064>066-069>071-074>076-080>082-084>086-088>090-092>094-181700-
SOUTH-CENTRAL ILLINOIS

CITY           SKY/WX    TMP DP  RH WIND       PRES   REMARKS
CARBONDALE     LGT SNOW  31  28  89 NE6       30.31F FOG     WCI  25
MARION         LGT SNOW  32  30  93 NE6       30.32S WCI  26
$$

ILZ067-068-072-073-078-083-087-091-181700-
SOUTHEAST ILLINOIS

CITY           SKY/WX    TMP DP  RH WIND       PRES   REMARKS
$$

ABBREVIATIONS USED IN REMARKS
   TC - TEMPERATURE IN CELSIUS
  WCI - WIND CHILL INDEX
   HX - HEAT INDEX
  VSB - VISIBILITY
$$



USA.gov is the U.S. government's official web portal to all federal, state and local government web resources and services.